Location: Treviso
(45.6669°N, 12.2430°E)
Time: 04:38:27
(UTC+02:00)

ISS - Pass Details

Date: 20 May 2018
Orbit: 402 x 407 km, 51.6° (Epoch: 26 May)

Event Time Altitude Azimuth Distance (km) Brightness Sun altitude
Rises 04:49:11 0° 296° (WNW) 2,319 -0.2 -7.4°
Reaches altitude 10° 04:51:18 10° 290° (WNW) 1,457 -1.3 -7.1°
Maximum altitude 04:54:27 47° 216° (SW) 539 -3.6 -6.7°
Drops below altitude 10° 04:57:36 10° 140° (SE) 1,450 -1.0 -6.2°
Sets 04:59:42 0° 135° (SE) 2,307 0.1 -6.0°
